Flag for U.S.A. Weather past 2 weeks in Pembroke Pines, Florida, U.S.A.

Now
79 °F

Clear.


Feels Like: 81 °F
Forecast: 79 / 87 °F
Wind: 8 mph from East

Location: North Perry Airport

Current Time: May 24, 2015 at 5:43:27 AM

Latest Report: May 24, 2015 at 4:53 AM


Visibility: 10 mi

Pressure: 30.14 "Hg

Humidity: 69%

Dew point: 68 °F

Location of Pembroke PinesLocation

Historic Weather in Pembroke Pines — Graph

°F

Pembroke Pines temperature yesterday

Maximum temperature yesterday: 89 °F (at 1:53 PM)
Minimum temperature yesterday: 73 °F (at 5:53 AM)
Average temperature yesterday: 81 °F

Past Weeks' High & Low Weather Summary

 TemperatureHumidityPressure
High93 °F (May 21, 1:53 PM)93% (May 20, 6:53 AM)30.22 "Hg (May 20, 6:53 AM)
Low70 °F (May 9, 5:53 AM)41% (May 20, 2:53 PM)29.95 "Hg (May 20, 6:53 PM)
Average81 °F70%30.11 "Hg
* Reported May 9 3:53 AM — May 24 3:53 AM, Pembroke Pines, Weather by CustomWeather, © 2015

Note: Actual official high and low records may vary slightly from our data, if they occured in-between our weather recording intervals... More about our weather records

Advertising

Pembroke Pines weather history for previous 24 hours

 ConditionsComfort  
Time TempWeatherWind HumidityBarometerVisibility
3:53 AM
Sun, May 24
79 °FPassing clouds.12 mph74%30.14 "Hg10 mi
2:53 AM80 °FClear.12 mph74%30.14 "Hg10 mi
1:53 AM80 °FPassing clouds.12 mph74%30.16 "Hg10 mi
12:53 AM81 °FPartly cloudy.14 mph74%30.17 "Hg10 mi
11:53 PM
Sat, May 23
81 °FPassing clouds.8 mph74%30.18 "Hg10 mi
10:53 PM81 °FPassing clouds.9 mph74%30.18 "Hg10 mi
9:53 PM81 °FPassing clouds.12 mph74%30.18 "Hg10 mi
8:53 PM82 °FScattered clouds.14 mph72%30.16 "Hg10 mi
7:53 PM82 °FPassing clouds.10 mph70%30.16 "Hg10 mi
6:53 PM83 °FScattered clouds.14 mph68%30.17 "Hg10 mi
5:53 PM85 °FPassing clouds.14 mph63%30.15 "Hg10 mi
4:53 PM87 °FScattered clouds.15 mph61%30.15 "Hg10 mi
3:53 PM89 °FSunny.13 mph50%30.17 "Hg10 mi
2:53 PM89 °FPassing clouds.14 mph57%30.18 "Hg10 mi
1:53 PM89 °FScattered clouds.14 mph53%30.19 "Hg10 mi
12:53 PM88 °FBroken clouds.14 mph59%30.21 "Hg10 mi
11:53 AM86 °FBroken clouds.12 mph61%30.22 "Hg10 mi
10:53 AM87 °FScattered clouds.12 mph61%30.21 "Hg10 mi
9:53 AM86 °FPassing clouds.8 mph63%30.19 "Hg10 mi
8:53 AM83 °FPassing clouds.7 mph74%30.20 "Hg10 mi
7:53 AM78 °FSunny.5 mph84%30.18 "Hg10 mi
6:53 AM74 °FClear.5 mph88%30.15 "Hg8 mi
5:53 AM73 °FClear.3 mph88%30.14 "Hg10 mi
Weather by CustomWeather, © 2015

See weather overviewHow to use our weather pages